SCP
0 0 0 0 0 0 0 0 0 0 0 0 0 0 0 0 0 0 0 0 0 0 0 0 0 0 0 0 0 0 0 0 0 0 0 0 0 0 0 0 0 0 0 0 0 0 0 0 0 0 0 0 0 0
0 0 0 0 0 0 0 0 0 0 0 0 0 0 0 0 0 0 0 0 0 0 0 0 0 0 0 0 0 0 0 0 0 0 0 0 0 0 0 0 0 0 0 0 0 0 0 0 0 0 0 0 0 0
0 0 0 0 0 0 0 0 0 0 0 0 0 0 0 0 0 0 0 0 0 0 0 0 0 0 0 0 0 0 0 0 0 0 0 0 0 0 0 0 0 0 0 0 0 0 0 0 0 0 0 0 0 0
0 0 0 0 0 0 0 0 0 0 0 0 0 0 0 0 0 0 0 0 0 0 0 0 0 0 0 0 0 0 0 0 0 0 0 0 0 0 0 0 0 0 0 0 0 0 0 0 0 0 0 0 0 0
0 0 0 0 0 0 0 0 0 0 0 0 0 0 0 0 0 0 0 0 0 0 0 0 0 0 0 0 0 0 0 0 0 0 0 0 0 0 0 0 0 0 0 0 0 0 0 0 0 0 0 0 0 0
0 0 0 0 0 0 0 0 0 0 0 0 0 0 0 0 0 0 0 0 0 0 0 0 0 0 0 0 0 0 0 0 0 0 0 0 0 0 0 0 0 0 0 0 0 0 0 0 0 0 0 0 0 0
0 0 0 0 0 0 0 0 0 0 0 0 0 0 0 0 0 0 0 0 0 0 0 0 0 0 0 0 0 0 0 0 0 0 0 0 0 0 0 0 0 0 0 0 0 0 0 0 0 0 0 0 0 0
0 0 0 0 0 0 0 0 0 0 0 -0 0 0 0 0 0 0 0 0 0 0 0 0 0 0 0 0 0 0 0 0 0 0 0 0 0 0 0 0 0 0 0 0 0 0 0 0 0 0 0 0 0 0
0 0 0 0 0 0 0 0 0 0 0 0 0 0 0 0 0 0 0 0 0 0 0 0 0 0 0 0 0 0 0 0 0 0 0 0 0 0 0 0 0 0 0 0 0 0 0 0 0 0 0 0 0 0
0 0 0 0 0 0 0 0 0 0 0 0 0 0 0 0 0 0 0 0 0 0 0 0 0 0 0 0 -0 0 0 0 0 0 0 0 0 0 0 0 0 0 0 0 0 0 0 0 0 0 0 0 0 0
0 0 0 0 0 0 0 0 0 0 0 0 0 0 0 0 0 0 0 0 0 0 0 0 0 0 0 0 0 0 0 0 0 0 0 0 0 0 0 0 0 0 0 0 0 0 0 0 0 0 0 0 0 0
0 0 0 -0 0 0 -0 -0 0 0 0 0 0 0 0 0 0 0 0 0 0 0 0 0 -0 0 -0 0 0 0 0 0 0 0 0 0 0 0 -0 -0 0 0 0 -0 0 0 0 0 0 0 0 0 0 0
-0 -0 -0 -0 -0 -0 0 0 0 0 0 0 0 0 0 0 0 0 0 0 0 0 -0 -0 -0 -0 -0 -0 -0 0 0 0 0 0 0 0 0 -0 -0 -0 -0 -0 -0 -0 -0 -0 -0 0 0 0 0 0 0 0
0 0 -0 0 -0 -0 0 0 -0 0 0 0 0 0 0 0 0 0 0 0 0 0 0 0 0 0 0 0 -0 -0 -0 0 0 0 0 -0 0 0 -0 -0 -0 -0 -0 -0 -0 -0 -0 0 0 0 0 0 0 0
0 0 0 0 -0 -0 0 0 0 0 0 0 0 0 0 0 0 0 0 0 0 0 -0 -0 -0 0 -0 -0 -0 0 0 0 -0 0 -0 -0 0 -0 -0 -0 -0 -0 0 -0 -0 -0 0 0 0 0 0 0 0 0
0 0 0 0 0 0 0 0 0 0 0 0 0 0 0 0 0 0 0 0 -0 -0 -0 0 -0 0 0 -0 -0 0 0 0 0 -0 0 0 -0 -0 -0 -0 -0 -0 0 -0 -0 0 -0 -0 0 0 0 0 -0 -0
0 0 0 -0 0 0 0 0 0 0 0 0 0 0 0 0 0 0 0 0 0 0 -0 0 0 -0 0 0 0 -0 0 -0 -0 0 0 -0 -0 -0 -0 -0 -0 -0 -0 -0 -0 -0 0 0 0 0 0 0 -0 0
0 0 0 -0 0 0 0 0 0 0 0 0 0 0 0 0 0 0 0 0 -0 -0 0 -0 0 0 0 0 0 0 -0 -0 -0 -0 -0 -0 -0 -0 -0 -0 0 0 -0 -0 -0 0 0 -0 0 0 -0 -0 0 -0
0 0 0 -0 0 0 0 0 0 0 0 0 0 0 0 0 0 0 0 -0 -0 -0 -0 -0 -0 -0 -0 -0 -0 -0 0 0 0 -0 0 -0 -0 0 0 -0 -0 0 -0 0 0 0 0 0 -0 -0 0 -0 0 0
-0 0 0 0 0 0 0 0 0 0 0 0 0 0 0 -0 -0 -0 -0 -0 -0 -0 -0 0 0 0 -0 -0 0 0 0 0 -0 0 -0 -0 0 -0 0 -0 -0 -0 0 0 0 0 0 0 0 -0 0 -0 -0 -0
0 0 0 0 0 0 0 0 0 0 0 0 0 -0 -0 -0 -0 -0 -0 -0 -0 -0 0 0 0 0 0 0 0 0 -0 -0 0 0 0 0 0 -0 -0 -0 -0 0 -0 0 0 -0 -0 -0 -0 -0 0 0 -0 0
-0 -0 -0 -0 -0 -0 -0 -0 -0 -0 -0 -0 -0 -0 -0 -0 -0 -0 -0 -0 -0 0 0 0 -0 0 0 0 0 0 -0 -0 0 0 0 -0 -0 0 -0 0 0 0 0 -0 -0 -0 -0 -0 0 0 0 -0 -0 -0
-0 -0 -0 -0 0 0 0 -0 -0 -0 -0 0 -0 -0 -0 -0 -0 -0 -0 -0 0 0 0 0 -0 0 0 0 0 0 -0 -0 -0 -0 -0 0 -0 -0 0 0 0 -0 0 0 -0 -0 -0 -0 -0 -0 -0 -0 -0 -0
0 0 0 0 0 0 0 0 0 0 0 0 0 0 0 0 0 0 0 0 0 0 0 0 0 0 0 0 0 -0 -0 0 -0 0 -0 -0 -0 -0 -0 -0 -0 -0 0 -0 -0 -0 -0 -0 -0 -0 -0 -0 -0 0
0 0 0 0 0 0 0 0 0 0 0 0 0 0 0 0 0 0 0 0 0 0 0 0 0 0 0 0 -0 -0 -0 -0 0 -0 0 -0 -0 0 -0 -0 -0 -0 -0 -0 -0 -0 -0 -0 -0 -0 -0 -0 -0 -0
0 0 0 0 0 0 0 0 0 0 0 0 0 0 0 0 0 0 0 0 0 0 0 0 0 0 -0 -0 -0 0 -0 0 0 0 -0 -0 -0 0 0 -0 -0 -0 -0 0 -0 0 0 0 0 0 -0 0 0 0
0 0 0 0 0 0 0 0 0 0 0 0 0 0 0 0 0 0 0 0 0 0 0 0 0 -0 -0 0 0 0 0 0 -0 -0 0 -0 0 0 -0 -0 -0 -0 -0 0 0 0 0 0 0 0 0 0 0 0
0 0 0 0 0 0 0 0 0 0 0 0 0 0 0 0 0 0 0 0 0 0 0 0 0 -0 -0 0 0 -0 -0 -0 -0 -0 0 0 0 0 0 0 0 0 0 0 0 0 0 0 0 0 0 0 0 0
0 0 0 0 0 0 0 0 0 0 0 0 0 0 0 0 0 0 0 0 0 -0 -0 -0 -0 -0 0 -0 -0 -0 0 -0 -0 0 0 0 0 0 0 0 0 0 0 0 0 0 0 0 0 0 0 0 0 0
0 0 0 0 0 0 0 0 0 0 0 0 0 0 0 0 0 0 0 0 0 0 -0 -0 0 0 0 0 0 0 0 0 0 0 0 0 -0 0 0 0 0 0 0 0 0 0 0 0 0 0 0 0 0 0
0 0 0 0 0 0 0 0 0 0 0 0 0 0 -0 0 0 0 0 -0 -0 -0 -0 0 -0 -0 -0 0 0 0 0 0 0 0 0 0 0 0 0 0 0 0 0 0 0 0 0 0 0 0 0 0 0 0
0 0 0 -0 0 0 0 0 0 0 0 0 0 0 -0 -0 -0 -0 -0 -0 -0 -0 -0 -0 -0 -0 -0 0 0 0 0 0 0 0 0 0 0 0 0 0 0 0 0 0 0 0 0 0 0 -0 -0 0 0 0
-0 -0 -0 -0 -0 -0 -0 -0 -0 -0 -0 -0 -0 -0 -0 0 0 0 0 0 0 0 0 -0 -0 0 -0 -0 -0 -0 -0 -0 0 0 0 0 0 0 0 0 0 0 0 0 0 0 0 -0 0 0 0 0 0 0
Wind_Speed_500mb
46 48 44 44 43 40 37 34 35 28 21 25 25 24 28 29 25 26 30 27 29 18 39 47 25 22 24 15 6 17 17 3 6 4 6 8 8 12 11 12 15 16 14 9 6 7 17 7 6 13 8 3 2 7
46 45 44 44 41 36 33 34 38 35 28 26 27 25 26 27 27 28 33 30 28 40 29 33 34 47 64 56 32 15 15 15 8 4 2 3 4 3 3 14 5 10 13 10 18 14 7 3 3 6 8 16 23 27
42 42 42 40 39 39 39 39 37 33 31 28 27 27 25 26 28 27 30 23 26 37 46 52 43 27 51 62 54 35 27 26 14 9 11 4 9 2 5 8 7 6 1 6 3 2 7 7 4 8 9 12 16 21
38 40 39 39 40 37 37 36 36 36 34 31 27 26 23 21 22 25 33 27 31 19 12 17 29 30 29 33 49 67 70 45 37 37 4 4 6 3 4 5 2 5 12 1 7 7 3 5 5 9 12 16 20 19
38 40 40 37 40 37 39 38 36 35 34 30 29 26 24 20 21 22 23 25 28 24 10 29 75 49 35 54 48 51 55 66 46 23 9 8 9 7 10 5 10 7 7 2 6 5 7 23 35 32 41 42 33 33
29 35 39 38 39 38 39 40 40 36 33 26 26 26 22 19 21 19 7 15 29 30 11 8 24 50 36 36 45 71 60 54 39 21 22 24 31 20 7 8 14 28 36 45 30 48 57 62 61 56 43 43 52 53
34 35 35 37 38 36 34 33 35 30 29 30 28 25 26 25 22 18 8 3 6 16 6 12 13 12 23 13 32 37 48 43 38 26 16 17 13 24 12 34 37 38 37 37 44 43 54 65 53 49 49 55 44 41
35 34 32 31 30 31 30 27 29 28 31 27 26 24 21 21 24 24 22 26 18 13 11 5 8 15 12 6 6 16 23 33 22 22 10 13 24 20 14 15 39 64 73 78 81 76 82 84 84 80 74 60 61 63
29 30 32 31 31 30 27 27 26 25 26 23 26 21 18 21 16 13 9 15 22 17 7 7 5 7 18 11 9 3 12 5 12 7 20 14 7 12 21 46 50 58 58 65 64 65 69 77 82 81 77 77 77 75
29 32 33 31 31 32 33 31 28 28 30 24 27 14 10 9 15 9 9 7 13 10 15 10 10 7 14 11 1 6 7 4 4 8 4 7 14 61 66 75 73 76 75 75 67 68 71 71 73 81 84 82 75 66
35 35 34 32 28 32 34 37 35 28 29 41 16 10 16 16 16 8 9 6 8 7 12 14 24 10 15 6 5 6 3 4 5 4 4 6 6 8 19 29 37 44 52 61 71 80 87 90 88 75 76 73 69 66
29 29 29 29 25 22 26 33 37 42 25 32 18 24 24 9 5 4 5 3 7 7 9 9 11 17 10 10 5 5 5 1 10 1 1 7 7 6 37 60 72 68 57 56 54 56 64 77 77 74 74 75 71 60
24 27 34 37 36 33 29 31 44 41 37 32 9 12 9 7 6 8 8 6 5 7 9 7 4 7 8 9 7 0 3 9 6 2 7 8 10 38 50 74 77 69 43 32 44 51 56 47 36 42 46 47 45 47
19 22 22 26 36 40 40 35 37 47 35 8 12 10 9 7 10 9 8 7 10 12 14 14 10 7 5 2 4 5 7 4 6 7 9 4 25 70 96 78 64 61 35 41 36 33 29 15 15 17 19 19 31 42
16 22 26 28 29 34 49 41 42 52 8 9 9 8 11 16 15 12 18 18 19 9 13 11 8 8 5 5 5 5 6 8 9 7 5 23 49 66 73 71 55 39 31 14 11 20 18 14 10 6 6 7 9 13
17 21 29 32 33 38 47 49 42 32 10 8 7 5 9 3 10 10 13 14 12 10 6 4 4 3 5 4 6 10 6 9 6 5 29 55 70 80 72 46 34 28 22 3 3 12 16 17 11 14 12 2 9 1
17 19 29 33 40 38 55 60 33 10 12 9 12 23 20 9 15 13 7 5 8 7 2 2 4 4 5 5 6 6 7 4 19 43 63 73 67 65 30 26 22 21 16 10 13 20 25 21 13 8 9 4 10 24
12 17 28 42 56 75 60 19 12 15 13 19 10 10 26 21 14 13 11 13 12 8 7 6 5 6 7 7 5 3 9 32 50 65 75 68 34 16 16 13 19 30 32 31 35 44 37 37 48 48 45 40 50 51
35 46 60 71 77 40 9 16 6 8 13 8 19 25 17 18 28 29 31 27 22 18 7 6 7 6 7 11 10 29 50 53 54 60 44 5 11 11 11 9 20 24 28 31 34 43 48 53 54 51 58 58 49 40
38 49 46 54 42 7 8 10 13 8 8 9 16 20 19 17 21 22 22 23 23 12 9 7 8 13 15 27 37 61 64 65 51 37 17 6 6 5 7 11 16 17 23 27 30 24 28 27 27 25 22 22 28 28
49 38 31 26 11 3 4 6 8 7 8 10 9 18 11 16 18 19 23 25 21 10 9 27 38 51 59 64 65 59 42 18 18 7 4 9 9 11 13 13 13 17 22 26 25 21 24 34 33 28 29 33 35 36
22 25 12 9 4 4 5 10 8 6 8 8 8 13 9 8 10 15 15 20 12 21 27 46 56 57 52 35 4 18 15 10 7 3 3 9 18 20 15 12 16 19 18 18 20 26 28 27 24 27 32 36 30 26
21 20 7 4 5 7 8 15 11 10 6 6 8 7 6 8 11 14 10 9 11 31 38 41 27 30 5 11 14 3 26 14 13 16 16 17 17 21 24 22 21 21 21 21 21 20 21 18 17 24 27 23 21 20
15 10 9 10 21 8 9 10 12 9 9 6 5 6 7 11 13 5 5 6 13 13 10 13 13 21 27 35 7 14 16 10 12 13 11 11 14 15 16 21 22 22 22 21 18 18 19 18 19 19 16 12 8 6
10 9 10 9 13 8 7 6 7 6 7 9 9 7 9 21 6 4 1 4 6 10 8 12 12 13 13 3 8 8 12 16 20 14 8 6 12 14 13 10 8 5 6 6 8 11 14 13 11 9 8 5 4 7
7 11 8 6 6 7 6 5 7 8 7 5 3 9 6 5 6 6 5 14 13 14 22 15 14 11 17 16 12 14 16 10 13 13 9 8 4 4 4 6 5 9 4 6 7 4 6 7 9 8 7 4 5 8
5 6 9 13 9 8 7 13 9 5 4 5 2 3 4 7 8 6 14 15 20 21 19 12 17 18 21 22 20 16 12 10 10 5 6 4 6 3 4 4 3 5 8 7 8 2 6 6 8 10 5 7 7 7
7 7 8 19 7 5 5 4 3 3 2 2 5 9 6 6 2 3 7 15 18 12 25 26 15 17 19 19 20 16 12 7 10 15 15 11 8 5 1 4 3 5 4 4 4 1 3 3 7 7 4 7 7 6
6 7 6 8 7 6 5 3 6 7 2 4 7 6 6 9 15 21 19 23 26 26 25 23 20 19 23 23 23 19 11 6 9 11 16 16 2 12 10 7 3 4 4 3 1 4 5 3 3 6 4 4 2 4
2 8 4 5 4 11 17 22 39 52 54 47 43 49 44 38 33 33 31 27 27 29 30 29 27 25 26 23 22 20 19 16 16 20 20 16 18 21 21 18 16 13 12 13 13 17 11 4 3 5 7 7 5 4
9 11 10 14 11 24 43 49 52 53 53 52 51 51 40 38 44 38 34 32 28 25 32 36 39 37 30 23 22 18 23 23 25 26 25 20 17 18 15 14 13 11 10 11 8 5 7 9 16 15 12 11 11 8
21 18 14 9 9 31 42 42 38 41 42 40 34 33 32 33 22 30 29 27 29 31 30 28 32 33 31 31 32 32 33 32 31 30 28 27 26 26 25 25 26 26 24 19 12 5 2 5 5 8 4 6 12 13
19 20 16 9 6 7 11 8 6 9 22 17 15 17 19 15 12 17 19 22 25 23 20 22 25 35 36 34 35 36 37 37 36 33 33 33 31 29 29 29 28 26 22 17 15 14 13 12 11 12 11 11 12 13
Wind_Direction_500mb
248 253 252 252 252 255 252 255 256 250 259 277 274 282 261 259 256 260 271 258 243 250 270 267 242 279 282 267 263 331 328 323 322 248 190 215 201 218 204 199 182 181 173 190 121 228 286 204 63 168 240 223 295 269
243 247 246 249 248 242 245 256 252 246 251 264 267 264 266 258 251 249 261 256 261 248 258 271 272 261 254 254 268 252 274 314 300 301 332 303 304 291 204 234 187 237 197 192 182 207 226 203 108 273 249 255 269 274
245 243 244 249 249 246 246 248 254 246 257 260 264 260 260 258 247 256 256 257 279 268 281 268 277 306 253 246 239 243 253 242 250 16 341 282 260 164 241 239 307 317 301 222 51 310 248 262 245 268 263 267 282 269
243 244 244 250 248 241 243 243 242 243 256 255 253 255 248 252 258 254 243 254 270 265 275 285 284 278 271 247 232 236 240 243 269 295 250 265 286 351 266 284 253 275 335 242 292 279 320 192 140 8 335 315 302 295
242 242 243 244 245 238 245 249 245 247 257 248 243 240 241 245 258 257 257 268 265 246 294 292 296 305 270 241 234 234 234 234 244 252 216 236 261 340 309 297 236 246 264 293 249 2 10 297 302 304 305 297 302 297
247 248 240 238 246 244 248 252 250 243 243 235 237 231 227 234 244 230 285 272 254 248 278 299 284 289 293 250 242 229 232 229 213 216 226 238 245 225 259 258 211 249 266 270 265 292 287 280 278 277 280 283 292 288
245 245 244 249 248 247 244 238 230 231 230 227 235 234 236 230 228 208 211 246 32 215 257 285 280 288 304 275 223 223 229 221 218 228 231 235 230 210 240 254 271 278 270 265 267 275 272 267 268 276 285 282 273 276
245 242 236 234 230 230 231 228 223 223 228 218 223 222 216 219 224 232 239 254 272 217 246 269 275 311 357 307 234 198 207 211 219 225 224 228 246 222 253 249 245 252 253 256 258 257 259 266 271 272 270 258 265 272
236 235 227 228 228 227 226 229 221 214 214 207 202 202 202 202 203 236 258 256 261 234 276 249 287 281 352 1 350 263 199 161 217 202 228 216 209 236 233 248 249 252 251 258 266 267 268 265 267 271 270 267 264 267
232 231 230 226 228 224 220 213 209 209 208 200 177 166 181 202 176 160 191 218 211 227 226 245 228 267 324 328 150 312 294 244 243 241 181 188 242 251 261 258 263 271 272 272 269 270 266 262 259 261 261 266 268 269
237 240 243 231 221 216 212 212 207 195 179 174 165 159 140 158 170 193 210 238 203 248 225 242 232 255 277 216 240 256 225 276 287 248 211 234 269 252 6 354 330 320 307 286 272 273 277 272 265 257 259 261 262 265
230 224 217 215 216 208 198 198 191 192 182 174 154 134 134 163 184 230 200 227 223 245 218 206 239 221 249 235 230 245 242 55 249 274 304 272 258 356 346 339 328 320 307 297 290 290 290 284 274 253 247 254 259 260
228 224 221 212 206 199 199 190 182 193 175 145 152 147 153 164 205 199 207 212 237 229 229 190 260 232 224 238 244 347 253 237 326 309 248 239 295 342 334 325 312 312 312 294 297 299 298 290 266 246 248 257 259 250
224 208 202 208 207 201 201 183 179 180 161 143 156 152 187 182 225 202 205 206 233 253 287 251 253 212 203 206 208 228 239 9 266 243 242 263 341 338 322 322 318 319 315 302 302 318 325 305 262 234 238 230 248 253
206 200 198 197 191 193 192 190 183 186 127 161 168 207 212 230 242 245 249 259 268 275 337 302 249 220 203 252 215 277 228 240 238 243 256 321 336 316 316 322 330 334 326 305 338 358 19 41 72 133 196 199 224 252
205 196 203 195 189 186 178 179 179 182 171 179 221 251 223 210 265 248 235 258 202 205 328 201 248 256 237 217 232 216 248 241 268 292 313 323 323 318 323 334 332 338 338 216 244 14 30 59 88 130 152 65 359 100
189 195 185 178 180 170 167 167 156 153 184 211 230 229 230 265 251 242 253 269 292 243 246 60 291 221 300 248 235 204 232 260 335 322 321 315 312 317 338 341 358 12 44 84 49 43 38 38 107 90 71 80 180 185
196 161 191 168 169 165 159 145 153 185 208 221 228 227 217 227 245 250 257 286 281 230 172 226 231 234 235 243 240 259 304 315 315 306 304 310 324 316 352 5 50 56 64 70 66 64 67 84 93 89 97 109 111 118
135 144 150 160 155 135 116 169 175 203 236 243 250 248 242 255 261 266 269 273 263 244 248 231 241 227 230 232 258 304 300 294 295 298 317 47 334 315 333 56 63 78 67 64 85 96 89 90 97 105 105 109 119 135
127 153 139 159 145 85 121 155 188 239 230 231 238 245 243 250 266 276 272 260 237 217 214 234 229 236 238 267 293 291 291 298 304 311 360 63 343 350 99 114 91 72 72 83 99 113 68 100 96 92 97 112 122 127
134 134 126 128 123 128 191 183 208 240 265 246 254 228 253 248 252 266 269 250 224 222 233 239 262 280 284 287 291 295 301 299 286 213 164 357 45 68 84 102 92 106 96 90 96 97 93 87 87 85 96 100 103 102
167 166 161 181 353 308 267 221 216 217 232 239 230 208 240 241 233 232 215 209 237 240 247 267 277 280 291 298 344 79 36 317 313 350 106 107 82 80 85 89 81 90 96 91 86 91 96 93 87 90 101 102 101 102
161 184 195 228 230 247 254 210 209 214 225 230 187 190 228 218 224 191 211 238 262 262 259 275 292 306 275 211 186 192 18 47 68 87 101 96 83 70 74 90 82 92 99 96 90 97 108 109 104 118 123 123 117 117
190 196 214 218 200 245 222 209 211 217 207 201 195 217 210 205 162 208 214 221 264 294 284 291 324 73 112 131 132 359 13 71 61 99 111 100 91 94 93 96 94 94 95 97 97 98 104 110 125 141 144 147 145 122
215 223 215 224 206 227 221 216 213 197 234 190 203 210 179 184 162 124 250 320 335 56 24 48 95 88 112 17 13 23 72 70 59 73 86 132 125 105 98 100 122 138 120 116 123 139 141 151 161 181 203 232 295 318
238 220 224 230 225 210 214 240 222 211 217 180 106 117 116 66 61 51 316 9 3 11 24 112 85 56 76 67 76 75 102 98 43 70 103 71 109 183 80 30 31 28 354 262 230 184 217 253 263 243 253 258 252 215
269 251 242 234 232 249 251 255 268 291 31 56 72 83 99 71 51 21 36 43 53 54 51 104 85 88 78 65 51 43 45 57 130 121 128 130 124 154 236 342 9 56 42 48 49 117 211 249 229 210 197 227 214 234
261 292 296 323 294 286 297 322 40 58 103 175 102 29 71 78 106 126 84 81 107 88 84 71 93 69 67 68 56 66 69 88 98 90 83 92 106 81 22 325 164 143 84 126 137 18 348 322 206 198 193 215 204 232
228 242 242 288 291 308 333 352 340 4 344 104 98 74 79 63 82 84 82 88 86 74 71 69 62 57 57 53 58 62 67 79 29 68 57 53 102 39 49 73 66 34 128 133 83 343 321 280 187 175 224 261 252 190
293 180 257 276 0 29 24 71 77 88 94 96 100 98 86 79 82 84 81 85 69 62 71 66 57 50 45 38 36 42 58 66 65 48 40 49 54 54 66 67 43 353 337 2 10 15 354 335 238 205 209 208 205 191
60 50 47 49 56 79 88 92 96 97 94 91 93 90 84 77 68 71 71 72 75 70 64 55 54 47 38 41 48 57 61 66 63 57 50 48 49 47 46 33 23 7 345 318 320 258 327 102 81 78 78 100 90 65
74 62 66 49 61 82 91 82 78 79 79 77 71 79 79 71 59 53 62 67 70 63 48 45 40 44 47 52 60 67 69 73 68 63 60 58 52 46 43 45 43 41 46 50 67 57 314 347 37 83 131 49 34 27
89 91 89 78 69 90 120 107 85 67 73 73 57 45 70 62 62 47 48 64 59 56 53 57 61 74 63 63 66 69 66 63 61 61 58 55 51 45 42 44 40 37 37 50 60 65 63 58 63 58 36 27 19 12
Wind_Speed_850mb
46 48 44 44 43 40 37 34 35 28 21 25 25 24 28 29 25 26 30 27 29 18 39 47 25 22 24 15 6 17 17 3 6 4 6 8 8 12 11 12 15 16 14 9 6 7 17 7 6 13 8 3 2 7
46 45 44 44 41 36 33 34 38 35 28 26 27 25 26 27 27 28 33 30 28 40 29 33 34 47 64 56 32 15 15 15 8 4 2 3 4 3 3 14 5 10 13 10 18 14 7 3 3 6 8 16 23 27
42 42 42 40 39 39 39 39 37 33 31 28 27 27 25 26 28 27 30 23 26 37 46 52 43 27 51 62 54 35 27 26 14 9 11 4 9 2 5 8 7 6 1 6 3 2 7 7 4 8 9 12 16 21
38 40 39 39 40 37 37 36 36 36 34 31 27 26 23 21 22 25 33 27 31 19 12 17 29 30 29 33 49 67 70 45 37 37 4 4 6 3 4 5 2 5 12 1 7 7 3 5 5 9 12 16 20 19
38 40 40 37 40 37 39 38 36 35 34 30 29 26 24 20 21 22 23 25 28 24 10 29 75 49 35 54 48 51 55 66 46 23 9 8 9 7 10 5 10 7 7 2 6 5 7 23 35 32 41 42 33 33
29 35 39 38 39 38 39 40 40 36 33 26 26 26 22 19 21 19 7 15 29 30 11 8 24 50 36 36 45 71 60 54 39 21 22 24 31 20 7 8 14 28 36 45 30 48 57 62 61 56 43 43 52 53
34 35 35 37 38 36 34 33 35 30 29 30 28 25 26 25 22 18 8 3 6 16 6 12 13 12 23 13 32 37 48 43 38 26 16 17 13 24 12 34 37 38 37 37 44 43 54 65 53 49 49 55 44 41
35 34 32 31 30 31 30 27 29 28 31 27 26 24 21 21 24 24 22 26 18 13 11 5 8 15 12 6 6 16 23 33 22 22 10 13 24 20 14 15 39 64 73 78 81 76 82 84 84 80 74 60 61 63
29 30 32 31 31 30 27 27 26 25 26 23 26 21 18 21 16 13 9 15 22 17 7 7 5 7 18 11 9 3 12 5 12 7 20 14 7 12 21 46 50 58 58 65 64 65 69 77 82 81 77 77 77 75
29 32 33 31 31 32 33 31 28 28 30 24 27 14 10 9 15 9 9 7 13 10 15 10 10 7 14 11 1 6 7 4 4 8 4 7 14 61 66 75 73 76 75 75 67 68 71 71 73 81 84 82 75 66
35 35 34 32 28 32 34 37 35 28 29 41 16 10 16 16 16 8 9 6 8 7 12 14 24 10 15 6 5 6 3 4 5 4 4 6 6 8 19 29 37 44 52 61 71 80 87 90 88 75 76 73 69 66
29 29 29 29 25 22 26 33 37 42 25 32 18 24 24 9 5 4 5 3 7 7 9 9 11 17 10 10 5 5 5 1 10 1 1 7 7 6 37 60 72 68 57 56 54 56 64 77 77 74 74 75 71 60
24 27 34 37 36 33 29 31 44 41 37 32 9 12 9 7 6 8 8 6 5 7 9 7 4 7 8 9 7 0 3 9 6 2 7 8 10 38 50 74 77 69 43 32 44 51 56 47 36 42 46 47 45 47
19 22 22 26 36 40 40 35 37 47 35 8 12 10 9 7 10 9 8 7 10 12 14 14 10 7 5 2 4 5 7 4 6 7 9 4 25 70 96 78 64 61 35 41 36 33 29 15 15 17 19 19 31 42
16 22 26 28 29 34 49 41 42 52 8 9 9 8 11 16 15 12 18 18 19 9 13 11 8 8 5 5 5 5 6 8 9 7 5 23 49 66 73 71 55 39 31 14 11 20 18 14 10 6 6 7 9 13
17 21 29 32 33 38 47 49 42 32 10 8 7 5 9 3 10 10 13 14 12 10 6 4 4 3 5 4 6 10 6 9 6 5 29 55 70 80 72 46 34 28 22 3 3 12 16 17 11 14 12 2 9 1
17 19 29 33 40 38 55 60 33 10 12 9 12 23 20 9 15 13 7 5 8 7 2 2 4 4 5 5 6 6 7 4 19 43 63 73 67 65 30 26 22 21 16 10 13 20 25 21 13 8 9 4 10 24
12 17 28 42 56 75 60 19 12 15 13 19 10 10 26 21 14 13 11 13 12 8 7 6 5 6 7 7 5 3 9 32 50 65 75 68 34 16 16 13 19 30 32 31 35 44 37 37 48 48 45 40 50 51
35 46 60 71 77 40 9 16 6 8 13 8 19 25 17 18 28 29 31 27 22 18 7 6 7 6 7 11 10 29 50 53 54 60 44 5 11 11 11 9 20 24 28 31 34 43 48 53 54 51 58 58 49 40
38 49 46 54 42 7 8 10 13 8 8 9 16 20 19 17 21 22 22 23 23 12 9 7 8 13 15 27 37 61 64 65 51 37 17 6 6 5 7 11 16 17 23 27 30 24 28 27 27 25 22 22 28 28
49 38 31 26 11 3 4 6 8 7 8 10 9 18 11 16 18 19 23 25 21 10 9 27 38 51 59 64 65 59 42 18 18 7 4 9 9 11 13 13 13 17 22 26 25 21 24 34 33 28 29 33 35 36
22 25 12 9 4 4 5 10 8 6 8 8 8 13 9 8 10 15 15 20 12 21 27 46 56 57 52 35 4 18 15 10 7 3 3 9 18 20 15 12 16 19 18 18 20 26 28 27 24 27 32 36 30 26
21 20 7 4 5 7 8 15 11 10 6 6 8 7 6 8 11 14 10 9 11 31 38 41 27 30 5 11 14 3 26 14 13 16 16 17 17 21 24 22 21 21 21 21 21 20 21 18 17 24 27 23 21 20
15 10 9 10 21 8 9 10 12 9 9 6 5 6 7 11 13 5 5 6 13 13 10 13 13 21 27 35 7 14 16 10 12 13 11 11 14 15 16 21 22 22 22 21 18 18 19 18 19 19 16 12 8 6
10 9 10 9 13 8 7 6 7 6 7 9 9 7 9 21 6 4 1 4 6 10 8 12 12 13 13 3 8 8 12 16 20 14 8 6 12 14 13 10 8 5 6 6 8 11 14 13 11 9 8 5 4 7
7 11 8 6 6 7 6 5 7 8 7 5 3 9 6 5 6 6 5 14 13 14 22 15 14 11 17 16 12 14 16 10 13 13 9 8 4 4 4 6 5 9 4 6 7 4 6 7 9 8 7 4 5 8
5 6 9 13 9 8 7 13 9 5 4 5 2 3 4 7 8 6 14 15 20 21 19 12 17 18 21 22 20 16 12 10 10 5 6 4 6 3 4 4 3 5 8 7 8 2 6 6 8 10 5 7 7 7
7 7 8 19 7 5 5 4 3 3 2 2 5 9 6 6 2 3 7 15 18 12 25 26 15 17 19 19 20 16 12 7 10 15 15 11 8 5 1 4 3 5 4 4 4 1 3 3 7 7 4 7 7 6
6 7 6 8 7 6 5 3 6 7 2 4 7 6 6 9 15 21 19 23 26 26 25 23 20 19 23 23 23 19 11 6 9 11 16 16 2 12 10 7 3 4 4 3 1 4 5 3 3 6 4 4 2 4
2 8 4 5 4 11 17 22 39 52 54 47 43 49 44 38 33 33 31 27 27 29 30 29 27 25 26 23 22 20 19 16 16 20 20 16 18 21 21 18 16 13 12 13 13 17 11 4 3 5 7 7 5 4
9 11 10 14 11 24 43 49 52 53 53 52 51 51 40 38 44 38 34 32 28 25 32 36 39 37 30 23 22 18 23 23 25 26 25 20 17 18 15 14 13 11 10 11 8 5 7 9 16 15 12 11 11 8
21 18 14 9 9 31 42 42 38 41 42 40 34 33 32 33 22 30 29 27 29 31 30 28 32 33 31 31 32 32 33 32 31 30 28 27 26 26 25 25 26 26 24 19 12 5 2 5 5 8 4 6 12 13
19 20 16 9 6 7 11 8 6 9 22 17 15 17 19 15 12 17 19 22 25 23 20 22 25 35 36 34 35 36 37 37 36 33 33 33 31 29 29 29 28 26 22 17 15 14 13 12 11 12 11 11 12 13
Wind_Direction_850mb
248 253 252 252 252 255 252 255 256 250 259 277 274 282 261 259 256 260 271 258 243 250 270 267 242 279 282 267 263 331 328 323 322 248 190 215 201 218 204 199 182 181 173 190 121 228 286 204 63 168 240 223 295 269
243 247 246 249 248 242 245 256 252 246 251 264 267 264 266 258 251 249 261 256 261 248 258 271 272 261 254 254 268 252 274 314 300 301 332 303 304 291 204 234 187 237 197 192 182 207 226 203 108 273 249 255 269 274
245 243 244 249 249 246 246 248 254 246 257 260 264 260 260 258 247 256 256 257 279 268 281 268 277 306 253 246 239 243 253 242 250 16 341 282 260 164 241 239 307 317 301 222 51 310 248 262 245 268 263 267 282 269
243 244 244 250 248 241 243 243 242 243 256 255 253 255 248 252 258 254 243 254 270 265 275 285 284 278 271 247 232 236 240 243 269 295 250 265 286 351 266 284 253 275 335 242 292 279 320 192 140 8 335 315 302 295
242 242 243 244 245 238 245 249 245 247 257 248 243 240 241 245 258 257 257 268 265 246 294 292 296 305 270 241 234 234 234 234 244 252 216 236 261 340 309 297 236 246 264 293 249 2 10 297 302 304 305 297 302 297
247 248 240 238 246 244 248 252 250 243 243 235 237 231 227 234 244 230 285 272 254 248 278 299 284 289 293 250 242 229 232 229 213 216 226 238 245 225 259 258 211 249 266 270 265 292 287 280 278 277 280 283 292 288
245 245 244 249 248 247 244 238 230 231 230 227 235 234 236 230 228 208 211 246 32 215 257 285 280 288 304 275 223 223 229 221 218 228 231 235 230 210 240 254 271 278 270 265 267 275 272 267 268 276 285 282 273 276
245 242 236 234 230 230 231 228 223 223 228 218 223 222 216 219 224 232 239 254 272 217 246 269 275 311 357 307 234 198 207 211 219 225 224 228 246 222 253 249 245 252 253 256 258 257 259 266 271 272 270 258 265 272
236 235 227 228 228 227 226 229 221 214 214 207 202 202 202 202 203 236 258 256 261 234 276 249 287 281 352 1 350 263 199 161 217 202 228 216 209 236 233 248 249 252 251 258 266 267 268 265 267 271 270 267 264 267
232 231 230 226 228 224 220 213 209 209 208 200 177 166 181 202 176 160 191 218 211 227 226 245 228 267 324 328 150 312 294 244 243 241 181 188 242 251 261 258 263 271 272 272 269 270 266 262 259 261 261 266 268 269
237 240 243 231 221 216 212 212 207 195 179 174 165 159 140 158 170 193 210 238 203 248 225 242 232 255 277 216 240 256 225 276 287 248 211 234 269 252 6 354 330 320 307 286 272 273 277 272 265 257 259 261 262 265
230 224 217 215 216 208 198 198 191 192 182 174 154 134 134 163 184 230 200 227 223 245 218 206 239 221 249 235 230 245 242 55 249 274 304 272 258 356 346 339 328 320 307 297 290 290 290 284 274 253 247 254 259 260
228 224 221 212 206 199 199 190 182 193 175 145 152 147 153 164 205 199 207 212 237 229 229 190 260 232 224 238 244 347 253 237 326 309 248 239 295 342 334 325 312 312 312 294 297 299 298 290 266 246 248 257 259 250
224 208 202 208 207 201 201 183 179 180 161 143 156 152 187 182 225 202 205 206 233 253 287 251 253 212 203 206 208 228 239 9 266 243 242 263 341 338 322 322 318 319 315 302 302 318 325 305 262 234 238 230 248 253
206 200 198 197 191 193 192 190 183 186 127 161 168 207 212 230 242 245 249 259 268 275 337 302 249 220 203 252 215 277 228 240 238 243 256 321 336 316 316 322 330 334 326 305 338 358 19 41 72 133 196 199 224 252
205 196 203 195 189 186 178 179 179 182 171 179 221 251 223 210 265 248 235 258 202 205 328 201 248 256 237 217 232 216 248 241 268 292 313 323 323 318 323 334 332 338 338 216 244 14 30 59 88 130 152 65 359 100
189 195 185 178 180 170 167 167 156 153 184 211 230 229 230 265 251 242 253 269 292 243 246 60 291 221 300 248 235 204 232 260 335 322 321 315 312 317 338 341 358 12 44 84 49 43 38 38 107 90 71 80 180 185
196 161 191 168 169 165 159 145 153 185 208 221 228 227 217 227 245 250 257 286 281 230 172 226 231 234 235 243 240 259 304 315 315 306 304 310 324 316 352 5 50 56 64 70 66 64 67 84 93 89 97 109 111 118
135 144 150 160 155 135 116 169 175 203 236 243 250 248 242 255 261 266 269 273 263 244 248 231 241 227 230 232 258 304 300 294 295 298 317 47 334 315 333 56 63 78 67 64 85 96 89 90 97 105 105 109 119 135
127 153 139 159 145 85 121 155 188 239 230 231 238 245 243 250 266 276 272 260 237 217 214 234 229 236 238 267 293 291 291 298 304 311 360 63 343 350 99 114 91 72 72 83 99 113 68 100 96 92 97 112 122 127
134 134 126 128 123 128 191 183 208 240 265 246 254 228 253 248 252 266 269 250 224 222 233 239 262 280 284 287 291 295 301 299 286 213 164 357 45 68 84 102 92 106 96 90 96 97 93 87 87 85 96 100 103 102
167 166 161 181 353 308 267 221 216 217 232 239 230 208 240 241 233 232 215 209 237 240 247 267 277 280 291 298 344 79 36 317 313 350 106 107 82 80 85 89 81 90 96 91 86 91 96 93 87 90 101 102 101 102
161 184 195 228 230 247 254 210 209 214 225 230 187 190 228 218 224 191 211 238 262 262 259 275 292 306 275 211 186 192 18 47 68 87 101 96 83 70 74 90 82 92 99 96 90 97 108 109 104 118 123 123 117 117
190 196 214 218 200 245 222 209 211 217 207 201 195 217 210 205 162 208 214 221 264 294 284 291 324 73 112 131 132 359 13 71 61 99 111 100 91 94 93 96 94 94 95 97 97 98 104 110 125 141 144 147 145 122
215 223 215 224 206 227 221 216 213 197 234 190 203 210 179 184 162 124 250 320 335 56 24 48 95 88 112 17 13 23 72 70 59 73 86 132 125 105 98 100 122 138 120 116 123 139 141 151 161 181 203 232 295 318
238 220 224 230 225 210 214 240 222 211 217 180 106 117 116 66 61 51 316 9 3 11 24 112 85 56 76 67 76 75 102 98 43 70 103 71 109 183 80 30 31 28 354 262 230 184 217 253 263 243 253 258 252 215
269 251 242 234 232 249 251 255 268 291 31 56 72 83 99 71 51 21 36 43 53 54 51 104 85 88 78 65 51 43 45 57 130 121 128 130 124 154 236 342 9 56 42 48 49 117 211 249 229 210 197 227 214 234
261 292 296 323 294 286 297 322 40 58 103 175 102 29 71 78 106 126 84 81 107 88 84 71 93 69 67 68 56 66 69 88 98 90 83 92 106 81 22 325 164 143 84 126 137 18 348 322 206 198 193 215 204 232
228 242 242 288 291 308 333 352 340 4 344 104 98 74 79 63 82 84 82 88 86 74 71 69 62 57 57 53 58 62 67 79 29 68 57 53 102 39 49 73 66 34 128 133 83 343 321 280 187 175 224 261 252 190
293 180 257 276 0 29 24 71 77 88 94 96 100 98 86 79 82 84 81 85 69 62 71 66 57 50 45 38 36 42 58 66 65 48 40 49 54 54 66 67 43 353 337 2 10 15 354 335 238 205 209 208 205 191
60 50 47 49 56 79 88 92 96 97 94 91 93 90 84 77 68 71 71 72 75 70 64 55 54 47 38 41 48 57 61 66 63 57 50 48 49 47 46 33 23 7 345 318 320 258 327 102 81 78 78 100 90 65
74 62 66 49 61 82 91 82 78 79 79 77 71 79 79 71 59 53 62 67 70 63 48 45 40 44 47 52 60 67 69 73 68 63 60 58 52 46 43 45 43 41 46 50 67 57 314 347 37 83 131 49 34 27
89 91 89 78 69 90 120 107 85 67 73 73 57 45 70 62 62 47 48 64 59 56 53 57 61 74 63 63 66 69 66 63 61 61 58 55 51 45 42 44 40 37 37 50 60 65 63 58 63 58 36 27 19 12